QPF
0.00 0.00 0.01 0.05 0.05 0.04 0.03 0.03 0.03 0.02 0.02 0.02 0.03 0.05 0.06 0.05 0.04 0.03 0.02 0.02 0.02 0.01 0.01 0.01 0.01 0.00 0.00 0.01 0.01 0.02 0.03 0.02 0.01 0.01 0.01 0.01 0.03 0.04 0.05 0.02 0.01 0.02 0.01
0.00 0.00 0.00 0.00 0.01 0.01 0.01 0.01 0.01 0.01 0.01 0.01 0.01 0.02 0.03 0.05 0.06 0.06 0.05 0.05 0.04 0.03 0.02 0.01 0.01 0.00 0.01 0.01 0.01 0.00 0.01 0.01 0.01 0.01 0.01 0.00 0.02 0.04 0.04 0.01 0.02 0.08 0.04
0.00 0.00 0.00 0.00 0.00 0.00 0.00 0.00 0.00 0.00 0.00 0.00 0.00 0.01 0.01 0.03 0.04 0.05 0.06 0.06 0.05 0.05 0.04 0.03 0.01 0.00 0.00 0.00 0.00 0.00 0.00 0.00 0.01 0.02 0.01 0.00 0.01 0.06 0.08 0.03 0.01 0.09 0.08
0.00 0.00 0.00 0.00 0.00 0.00 0.00 0.00 0.00 0.00 0.00 0.00 0.00 0.00 0.00 0.02 0.03 0.04 0.04 0.05 0.04 0.04 0.04 0.04 0.03 0.02 0.01 0.00 0.00 0.00 0.01 0.01 0.01 0.01 0.00 0.00 0.00 0.04 0.08 0.05 0.01 0.03 0.06
0.00 0.00 0.00 0.00 0.00 0.00 0.00 0.00 0.00 0.00 0.00 0.00 0.00 0.00 0.00 0.00 0.02 0.02 0.03 0.03 0.03 0.03 0.03 0.03 0.03 0.03 0.03 0.02 0.01 0.01 0.01 0.02 0.02 0.01 0.00 0.00 0.01 0.02 0.05 0.08 0.03 0.02 0.03
0.00 0.00 0.00 0.00 0.00 0.00 0.00 0.00 0.00 0.00 0.00 0.00 0.00 0.00 0.00 0.00 0.00 0.00 0.01 0.01 0.01 0.02 0.03 0.03 0.03 0.04 0.05 0.04 0.03 0.01 0.02 0.04 0.03 0.01 0.00 0.00 0.01 0.04 0.08 0.11 0.07 0.04 0.02
0.00 0.00 0.00 0.00 0.00 0.00 0.00 0.00 0.00 0.00 0.00 0.00 0.00 0.00 0.00 0.00 0.00 0.00 0.00 0.00 0.00 0.01 0.02 0.03 0.03 0.04 0.05 0.05 0.04 0.03 0.03 0.04 0.02 0.00 0.00 0.00 0.01 0.05 0.08 0.08 0.07 0.06 0.05
0.00 0.00 0.00 0.00 0.00 0.00 0.00 0.00 0.00 0.00 0.00 0.00 0.00 0.00 0.00 0.00 0.00 0.00 0.00 0.00 0.00 0.00 0.00 0.01 0.02 0.03 0.04 0.05 0.05 0.05 0.04 0.03 0.01 0.00 0.01 0.02 0.02 0.06 0.08 0.09 0.08 0.08 0.07
0.00 0.00 0.00 0.00 0.00 0.00 0.00 0.00 0.00 0.00 0.00 0.00 0.00 0.00 0.00 0.00 0.00 0.00 0.00 0.00 0.00 0.00 0.00 0.00 0.01 0.02 0.02 0.03 0.04 0.05 0.04 0.02 0.01 0.00 0.02 0.03 0.04 0.10 0.14 0.12 0.07 0.07 0.08
0.00 0.00 0.00 0.00 0.00 0.00 0.00 0.00 0.00 0.00 0.00 0.00 0.00 0.00 0.00 0.00 0.00 0.00 0.00 0.00 0.00 0.00 0.00 0.00 0.00 0.01 0.01 0.01 0.02 0.03 0.03 0.02 0.00 0.00 0.00 0.02 0.07 0.16 0.24 0.21 0.12 0.09 0.09
0.00 0.00 0.00 0.00 0.00 0.00 0.00 0.00 0.00 0.00 0.00 0.00 0.00 0.00 0.00 0.00 0.00 0.00 0.00 0.00 0.00 0.00 0.00 0.00 0.00 0.00 0.00 0.00 0.01 0.01 0.02 0.00 0.00 0.00 0.00 0.00 0.06 0.19 0.28 0.26 0.22 0.15 0.13
0.00 0.00 0.00 0.00 0.00 0.00 0.00 0.00 0.00 0.00 0.00 0.00 0.00 0.00 0.00 0.00 0.00 0.00 0.00 0.00 0.00 0.00 0.00 0.00 0.00 0.00 0.00 0.00 0.00 0.01 0.01 0.00 0.00 0.00 0.00 0.01 0.06 0.14 0.24 0.28 0.29 0.23 0.19
0.00 0.00 0.00 0.00 0.00 0.00 0.00 0.00 0.00 0.00 0.00 0.00 0.00 0.00 0.00 0.00 0.00 0.00 0.00 0.00 0.00 0.00 0.00 0.00 0.00 0.00 0.00 0.00 0.00 0.00 0.00 0.00 0.01 0.01 0.01 0.03 0.05 0.09 0.16 0.23 0.29 0.27 0.23
0.00 0.00 0.00 0.00 0.00 0.00 0.00 0.00 0.00 0.00 0.00 0.00 0.00 0.00 0.00 0.00 0.00 0.00 0.00 0.00 0.00 0.00 0.00 0.00 0.00 0.00 0.00 0.00 0.00 0.00 0.00 0.01 0.02 0.03 0.03 0.06 0.07 0.07 0.10 0.16 0.21 0.22 0.22
0.00 0.00 0.00 0.00 0.00 0.00 0.00 0.00 0.00 0.00 0.00 0.00 0.00 0.00 0.00 0.00 0.00 0.00 0.00 0.00 0.00 0.00 0.00 0.00 0.00 0.00 0.00 0.00 0.00 0.00 0.00 0.01 0.02 0.05 0.07 0.09 0.09 0.08 0.08 0.12 0.15 0.15 0.14
0.00 0.00 0.00 0.00 0.00 0.00 0.00 0.00 0.00 0.00 0.00 0.00 0.00 0.00 0.00 0.00 0.00 0.00 0.00 0.00 0.00 0.00 0.00 0.00 0.00 0.00 0.00 0.00 0.00 0.00 0.00 0.01 0.01 0.04 0.07 0.09 0.10 0.09 0.09 0.09 0.11 0.11 0.11
0.00 0.00 0.00 0.00 0.00 0.00 0.00 0.00 0.00 0.00 0.00 0.00 0.00 0.00 0.00 0.00 0.00 0.00 0.00 0.00 0.00 0.00 0.00 0.00 0.00 0.00 0.00 0.00 0.00 0.00 0.00 0.00 0.01 0.02 0.05 0.08 0.12 0.12 0.10 0.10 0.11 0.09 0.07
0.00 0.00 0.00 0.00 0.00 0.00 0.00 0.00 0.00 0.00 0.00 0.00 0.00 0.00 0.00 0.00 0.00 0.00 0.00 0.00 0.00 0.00 0.00 0.00 0.00 0.00 0.00 0.00 0.00 0.00 0.00 0.00 0.00 0.01 0.02 0.05 0.10 0.14 0.14 0.13 0.13 0.11 0.08
0.00 0.00 0.00 0.00 0.00 0.00 0.00 0.00 0.00 0.00 0.00 0.00 0.00 0.00 0.00 0.00 0.00 0.00 0.00 0.00 0.00 0.00 0.00 0.00 0.00 0.00 0.00 0.00 0.00 0.00 0.00 0.00 0.00 0.00 0.00 0.02 0.05 0.09 0.13 0.15 0.14 0.12 0.10
0.00 0.00 0.00 0.00 0.00 0.00 0.00 0.00 0.00 0.00 0.00 0.00 0.00 0.00 0.00 0.00 0.00 0.00 0.00 0.00 0.00 0.00 0.00 0.00 0.00 0.00 0.00 0.00 0.00 0.00 0.00 0.00 0.00 0.00 0.00 0.00 0.01 0.04 0.08 0.11 0.12 0.11 0.09
0.00 0.00 0.00 0.00 0.00 0.00 0.00 0.00 0.00 0.00 0.00 0.00 0.00 0.00 0.00 0.00 0.00 0.00 0.00 0.00 0.00 0.01 0.00 0.00 0.00 0.00 0.00 0.00 0.00 0.00 0.00 0.00 0.00 0.00 0.00 0.00 0.00 0.02 0.05 0.08 0.09 0.10 0.09
0.00 0.00 0.00 0.00 0.00 0.00 0.00 0.00 0.00 0.00 0.00 0.00 0.00 0.00 0.00 0.00 0.00 0.00 0.00 0.00 0.00 0.00 0.00 0.00 0.00 0.02 0.01 0.01 0.01 0.02 0.01 0.00 0.00 0.00 0.00 0.00 0.00 0.00 0.02 0.04 0.06 0.07 0.07
0.00 0.00 0.00 0.00 0.00 0.00 0.00 0.00 0.00 0.00 0.00 0.00 0.00 0.00 0.00 0.00 0.00 0.00 0.00 0.00 0.00 0.00 0.00 0.00 0.01 0.02 0.02 0.01 0.01 0.04 0.06 0.04 0.01 0.00 0.00 0.00 0.00 0.00 0.00 0.01 0.03 0.05 0.05
0.00 0.00 0.00 0.00 0.00 0.00 0.00 0.00 0.00 0.00 0.00 0.00 0.00 0.00 0.00 0.00 0.00 0.00 0.00 0.00 0.00 0.00 0.00 0.00 0.00 0.01 0.03 0.03 0.01 0.02 0.04 0.04 0.05 0.02 0.00 0.00 0.00 0.00 0.00 0.00 0.01 0.02 0.03
0.00 0.00 0.00 0.00 0.00 0.00 0.00 0.00 0.00 0.00 0.00 0.00 0.00 0.00 0.00 0.00 0.00 0.00 0.00 0.00 0.00 0.00 0.00 0.00 0.00 0.00 0.02 0.03 0.03 0.03 0.02 0.02 0.03 0.04 0.01 0.00 0.00 0.00 0.00 0.00 0.01 0.01 0.03
0.00 0.00 0.00 0.00 0.00 0.00 0.00 0.00 0.00 0.00 0.00 0.00 0.00 0.00 0.00 0.00 0.00 0.00 0.00 0.00 0.00 0.00 0.00 0.00 0.00 0.00 0.01 0.01 0.02 0.03 0.04 0.05 0.04 0.04 0.03 0.00 0.00 0.00 0.00 0.01 0.01 0.01 0.02
MSLP
1028.57 1027.89 1027.09 1026.26 1025.49 1024.84 1024.30 1023.85 1023.44 1023.02 1022.54 1021.99 1021.40 1020.81 1020.26 1019.80 1019.42 1019.12 1018.86 1018.61 1018.32 1018.00 1017.64 1017.28 1016.93 1016.63 1016.39 1016.20 1016.06 1015.92 1015.79 1015.64 1015.48 1015.32 1015.20 1015.11 1015.08 1015.08 1015.10 1015.12 1015.13 1015.11 1015.08
1029.28 1028.54 1027.69 1026.84 1026.05 1025.39 1024.84 1024.38 1023.96 1023.52 1023.03 1022.50 1021.94 1021.39 1020.89 1020.45 1020.08 1019.76 1019.46 1019.13 1018.77 1018.36 1017.92 1017.48 1017.07 1016.71 1016.42 1016.18 1015.98 1015.79 1015.60 1015.41 1015.23 1015.08 1014.97 1014.92 1014.92 1014.96 1015.02 1015.06 1015.07 1015.06 1015.03
1029.94 1029.15 1028.27 1027.39 1026.60 1025.93 1025.38 1024.92 1024.49 1024.05 1023.58 1023.08 1022.56 1022.06 1021.59 1021.18 1020.81 1020.45 1020.08 1019.68 1019.21 1018.70 1018.17 1017.65 1017.18 1016.76 1016.42 1016.13 1015.87 1015.63 1015.39 1015.16 1014.96 1014.80 1014.71 1014.69 1014.73 1014.81 1014.90 1014.97 1015.00 1014.99 1014.96
1030.50 1029.68 1028.79 1027.92 1027.14 1026.48 1025.95 1025.48 1025.06 1024.63 1024.17 1023.69 1023.20 1022.73 1022.30 1021.90 1021.52 1021.13 1020.70 1020.20 1019.65 1019.05 1018.43 1017.84 1017.29 1016.82 1016.42 1016.08 1015.77 1015.48 1015.20 1014.93 1014.71 1014.55 1014.46 1014.45 1014.52 1014.62 1014.74 1014.83 1014.88 1014.89 1014.88
1030.95 1030.13 1029.26 1028.42 1027.69 1027.07 1026.56 1026.10 1025.67 1025.23 1024.77 1024.30 1023.83 1023.38 1022.96 1022.57 1022.18 1021.76 1021.27 1020.71 1020.08 1019.41 1018.72 1018.07 1017.47 1016.94 1016.49 1016.10 1015.73 1015.39 1015.06 1014.76 1014.50 1014.31 1014.21 1014.20 1014.27 1014.38 1014.50 1014.61 1014.69 1014.72 1014.74
1031.31 1030.52 1029.71 1028.94 1028.28 1027.71 1027.23 1026.78 1026.33 1025.87 1025.38 1024.89 1024.41 1023.96 1023.56 1023.17 1022.77 1022.34 1021.82 1021.22 1020.55 1019.83 1019.09 1018.39 1017.75 1017.18 1016.68 1016.23 1015.80 1015.40 1015.01 1014.65 1014.35 1014.12 1013.98 1013.94 1013.97 1014.07 1014.18 1014.30 1014.39 1014.47 1014.52
1031.61 1030.89 1030.16 1029.50 1028.92 1028.42 1027.96 1027.51 1027.03 1026.52 1025.99 1025.45 1024.95 1024.50 1024.09 1023.71 1023.32 1022.89 1022.37 1021.76 1021.07 1020.33 1019.57 1018.84 1018.16 1017.55 1017.00 1016.48 1016.00 1015.52 1015.07 1014.64 1014.26 1013.96 1013.76 1013.65 1013.63 1013.68 1013.77 1013.87 1013.98 1014.09 1014.21
1031.92 1031.28 1030.66 1030.10 1029.62 1029.19 1028.75 1028.29 1027.77 1027.20 1026.60 1026.02 1025.48 1025.00 1024.60 1024.23 1023.86 1023.44 1022.94 1022.35 1021.66 1020.92 1020.16 1019.41 1018.71 1018.05 1017.44 1016.86 1016.30 1015.75 1015.21 1014.69 1014.23 1013.84 1013.55 1013.36 1013.25 1013.23 1013.26 1013.35 1013.46 1013.61 1013.78
1032.27 1031.72 1031.21 1030.77 1030.38 1030.00 1029.58 1029.10 1028.53 1027.89 1027.23 1026.59 1026.01 1025.52 1025.12 1024.76 1024.40 1024.01 1023.54 1022.96 1022.30 1021.57 1020.81 1020.06 1019.33 1018.64 1017.97 1017.33 1016.69 1016.06 1015.43 1014.82 1014.25 1013.77 1013.36 1013.06 1012.86 1012.74 1012.70 1012.74 1012.85 1013.02 1013.26
1032.67 1032.21 1031.81 1031.48 1031.16 1030.83 1030.42 1029.90 1029.28 1028.59 1027.88 1027.19 1026.59 1026.09 1025.68 1025.33 1024.99 1024.61 1024.15 1023.59 1022.94 1022.23 1021.47 1020.71 1019.96 1019.24 1018.53 1017.83 1017.12 1016.40 1015.68 1014.99 1014.32 1013.73 1013.22 1012.80 1012.48 1012.26 1012.14 1012.12 1012.20 1012.38 1012.66
1033.11 1032.74 1032.44 1032.19 1031.94 1031.63 1031.21 1030.66 1030.01 1029.28 1028.53 1027.83 1027.21 1026.71 1026.29 1025.94 1025.59 1025.21 1024.74 1024.18 1023.54 1022.82 1022.07 1021.31 1020.55 1019.80 1019.06 1018.31 1017.54 1016.76 1015.97 1015.19 1014.43 1013.74 1013.12 1012.59 1012.15 1011.83 1011.61 1011.52 1011.56 1011.73 1012.03
1033.56 1033.28 1033.07 1032.88 1032.66 1032.35 1031.91 1031.35 1030.66 1029.92 1029.16 1028.47 1027.86 1027.36 1026.95 1026.58 1026.20 1025.79 1025.29 1024.70 1024.04 1023.32 1022.57 1021.80 1021.04 1020.29 1019.52 1018.74 1017.93 1017.10 1016.25 1015.40 1014.57 1013.79 1013.08 1012.45 1011.91 1011.48 1011.17 1011.00 1010.98 1011.11 1011.40
1034.01 1033.81 1033.65 1033.50 1033.28 1032.96 1032.50 1031.91 1031.22 1030.49 1029.76 1029.10 1028.52 1028.03 1027.61 1027.22 1026.80 1026.32 1025.77 1025.14 1024.44 1023.70 1022.95 1022.19 1021.44 1020.68 1019.92 1019.12 1018.28 1017.41 1016.52 1015.62 1014.73 1013.88 1013.09 1012.37 1011.74 1011.22 1010.82 1010.57 1010.48 1010.56 1010.81
1034.42 1034.29 1034.18 1034.03 1033.79 1033.44 1032.95 1032.35 1031.67 1030.97 1030.29 1029.68 1029.15 1028.68 1028.26 1027.82 1027.35 1026.80 1026.18 1025.49 1024.75 1023.99 1023.23 1022.48 1021.75 1021.00 1020.24 1019.44 1018.59 1017.69 1016.76 1015.81 1014.88 1013.98 1013.13 1012.34 1011.65 1011.05 1010.58 1010.25 1010.08 1010.10 1010.29
1034.80 1034.73 1034.63 1034.46 1034.18 1033.79 1033.27 1032.66 1032.01 1031.36 1030.75 1030.20 1029.72 1029.28 1028.85 1028.37 1027.84 1027.22 1026.52 1025.77 1024.99 1024.22 1023.46 1022.73 1022.01 1021.28 1020.52 1019.71 1018.84 1017.92 1016.95 1015.97 1014.99 1014.05 1013.16 1012.33 1011.59 1010.94 1010.41 1010.01 1009.78 1009.73 1009.85
1035.15 1035.11 1035.00 1034.80 1034.47 1034.03 1033.48 1032.88 1032.26 1031.66 1031.13 1030.66 1030.23 1029.81 1029.36 1028.85 1028.25 1027.56 1026.81 1026.01 1025.21 1024.43 1023.68 1022.96 1022.26 1021.54 1020.78 1019.95 1019.05 1018.08 1017.08 1016.06 1015.04 1014.07 1013.15 1012.30 1011.53 1010.86 1010.29 1009.85 1009.56 1009.44 1009.48
1035.46 1035.44 1035.31 1035.06 1034.69 1034.20 1033.63 1033.04 1032.45 1031.92 1031.45 1031.04 1030.65 1030.24 1029.78 1029.23 1028.58 1027.85 1027.05 1026.24 1025.43 1024.66 1023.93 1023.23 1022.53 1021.80 1021.02 1020.15 1019.21 1018.19 1017.14 1016.07 1015.03 1014.03 1013.10 1012.24 1011.47 1010.78 1010.20 1009.73 1009.40 1009.21 1009.18
1035.75 1035.72 1035.57 1035.28 1034.85 1034.34 1033.76 1033.18 1032.64 1032.16 1031.74 1031.36 1030.99 1030.58 1030.10 1029.52 1028.83 1028.07 1027.26 1026.44 1025.65 1024.91 1024.20 1023.52 1022.82 1022.07 1021.25 1020.33 1019.32 1018.25 1017.14 1016.03 1014.96 1013.95 1013.01 1012.17 1011.40 1010.72 1010.14 1009.65 1009.29 1009.05 1008.95
1036.00 1035.95 1035.77 1035.44 1034.99 1034.46 1033.90 1033.34 1032.84 1032.40 1032.01 1031.65 1031.27 1030.84 1030.32 1029.70 1028.99 1028.22 1027.42 1026.63 1025.87 1025.16 1024.49 1023.82 1023.11 1022.33 1021.46 1020.48 1019.41 1018.28 1017.12 1015.97 1014.88 1013.87 1012.95 1012.12 1011.37 1010.71 1010.13 1009.63 1009.24 1008.95 1008.78
1036.19 1036.12 1035.92 1035.57 1035.12 1034.60 1034.06 1033.54 1033.07 1032.65 1032.27 1031.89 1031.48 1031.00 1030.43 1029.77 1029.05 1028.28 1027.51 1026.76 1026.06 1025.40 1024.76 1024.10 1023.39 1022.58 1021.65 1020.62 1019.49 1018.31 1017.12 1015.96 1014.86 1013.86 1012.96 1012.15 1011.42 1010.78 1010.20 1009.69 1009.26 1008.92 1008.69
1036.32 1036.23 1036.00 1035.65 1035.22 1034.73 1034.24 1033.76 1033.32 1032.92 1032.52 1032.09 1031.62 1031.08 1030.45 1029.75 1029.01 1028.26 1027.52 1026.84 1026.20 1025.59 1024.99 1024.35 1023.63 1022.79 1021.83 1020.76 1019.60 1018.40 1017.20 1016.04 1014.96 1013.98 1013.11 1012.32 1011.61 1010.97 1010.38 1009.85 1009.38 1008.98 1008.66
1036.39 1036.27 1036.03 1035.70 1035.30 1034.86 1034.42 1034.00 1033.58 1033.17 1032.74 1032.26 1031.71 1031.09 1030.40 1029.65 1028.90 1028.16 1027.48 1026.85 1026.27 1025.72 1025.16 1024.53 1023.82 1022.98 1022.00 1020.92 1019.76 1018.57 1017.39 1016.27 1015.22 1014.28 1013.43 1012.66 1011.96 1011.31 1010.69 1010.12 1009.59 1009.12 1008.72
1036.40 1036.25 1036.02 1035.71 1035.35 1034.97 1034.59 1034.21 1033.82 1033.40 1032.93 1032.38 1031.76 1031.05 1030.29 1029.51 1028.75 1028.03 1027.38 1026.80 1026.28 1025.78 1025.25 1024.66 1023.96 1023.12 1022.17 1021.11 1019.98 1018.84 1017.71 1016.64 1015.65 1014.74 1013.92 1013.16 1012.44 1011.76 1011.10 1010.47 1009.88 1009.32 1008.83
1036.38 1036.22 1035.98 1035.69 1035.38 1035.06 1034.73 1034.39 1034.02 1033.59 1033.07 1032.47 1031.77 1030.99 1030.18 1029.37 1028.59 1027.89 1027.27 1026.74 1026.25 1025.78 1025.28 1024.71 1024.03 1023.22 1022.30 1021.30 1020.24 1019.16 1018.11 1017.11 1016.18 1015.31 1014.50 1013.73 1012.99 1012.26 1011.55 1010.86 1010.19 1009.56 1008.97
1036.39 1036.21 1035.96 1035.69 1035.40 1035.12 1034.83 1034.52 1034.15 1033.71 1033.16 1032.51 1031.76 1030.94 1030.09 1029.25 1028.47 1027.77 1027.17 1026.65 1026.19 1025.73 1025.24 1024.67 1024.01 1023.24 1022.37 1021.44 1020.46 1019.48 1018.51 1017.59 1016.70 1015.87 1015.06 1014.27 1013.49 1012.71 1011.95 1011.19 1010.46 1009.76 1009.12
1036.46 1036.25 1036.00 1035.72 1035.44 1035.17 1034.89 1034.58 1034.22 1033.76 1033.20 1032.51 1031.74 1030.89 1030.03 1029.18 1028.40 1027.70 1027.09 1026.56 1026.08 1025.60 1025.09 1024.52 1023.87 1023.13 1022.32 1021.46 1020.58 1019.68 1018.81 1017.95 1017.11 1016.29 1015.48 1014.66 1013.84 1013.01 1012.20 1011.40 1010.63 1009.89 1009.20
Thickness
5637 5641 5645 5650 5654 5657 5660 5662 5665 5668 5671 5673 5676 5680 5684 5687 5691 5695 5698 5701 5703 5705 5708 5710 5711 5713 5714 5715 5717 5720 5722 5724 5726 5727 5728 5728 5729 5731 5731 5731 5732 5733 5735
5631 5635 5639 5642 5646 5649 5651 5654 5656 5659 5662 5664 5666 5669 5672 5675 5679 5682 5686 5689 5692 5696 5699 5703 5706 5707 5709 5710 5712 5714 5717 5719 5722 5724 5725 5726 5727 5729 5729 5729 5729 5730 5731
5625 5628 5631 5634 5637 5641 5644 5646 5649 5651 5652 5655 5656 5658 5661 5663 5666 5668 5672 5675 5679 5684 5688 5692 5697 5700 5703 5705 5707 5709 5711 5713 5716 5719 5721 5723 5724 5726 5727 5727 5727 5728 5729
5620 5621 5623 5626 5629 5633 5636 5638 5640 5642 5643 5645 5647 5648 5649 5651 5653 5655 5657 5661 5665 5669 5675 5680 5685 5690 5694 5698 5700 5703 5705 5708 5710 5713 5716 5719 5721 5723 5725 5725 5725 5726 5727
5613 5614 5616 5619 5622 5625 5628 5629 5631 5633 5634 5635 5636 5637 5638 5639 5641 5643 5644 5647 5651 5656 5660 5666 5671 5677 5682 5687 5692 5696 5699 5703 5705 5708 5711 5714 5717 5720 5722 5723 5724 5724 5724
5607 5607 5609 5612 5614 5616 5618 5619 5620 5622 5623 5624 5625 5626 5627 5627 5628 5629 5630 5633 5637 5641 5646 5651 5657 5663 5669 5675 5680 5686 5691 5696 5699 5702 5705 5709 5712 5716 5719 5720 5721 5722 5722
5600 5600 5601 5603 5604 5605 5606 5607 5607 5608 5609 5610 5610 5611 5612 5613 5613 5615 5616 5619 5623 5626 5631 5637 5643 5648 5654 5661 5668 5674 5680 5686 5691 5695 5699 5703 5707 5710 5713 5716 5717 5719 5720
5592 5591 5592 5592 5592 5593 5594 5594 5593 5593 5593 5594 5594 5595 5595 5596 5596 5598 5599 5602 5606 5610 5616 5621 5626 5632 5639 5645 5653 5661 5668 5674 5682 5687 5692 5697 5702 5705 5708 5711 5713 5715 5716
5584 5583 5582 5581 5580 5580 5579 5578 5577 5577 5576 5576 5576 5576 5576 5575 5576 5578 5578 5583 5588 5593 5598 5604 5609 5615 5623 5630 5637 5645 5654 5662 5671 5678 5683 5690 5696 5701 5703 5706 5707 5710 5711
5575 5572 5569 5568 5566 5565 5564 5561 5559 5557 5555 5554 5554 5554 5553 5551 5552 5554 5555 5560 5566 5572 5579 5584 5590 5596 5605 5613 5621 5629 5638 5648 5658 5666 5674 5681 5688 5695 5698 5700 5702 5705 5707
5564 5560 5557 5554 5551 5549 5547 5544 5540 5537 5534 5531 5530 5529 5527 5526 5526 5528 5530 5534 5540 5547 5554 5561 5568 5576 5585 5594 5602 5612 5621 5630 5641 5653 5663 5671 5679 5687 5691 5695 5698 5700 5702
5553 5550 5546 5542 5538 5535 5531 5527 5522 5517 5512 5509 5507 5506 5503 5501 5499 5500 5502 5506 5511 5518 5525 5535 5544 5552 5562 5572 5581 5592 5602 5613 5625 5637 5649 5659 5668 5677 5683 5688 5692 5695 5697
5542 5537 5533 5527 5521 5517 5512 5507 5501 5495 5489 5485 5481 5480 5477 5474 5473 5472 5474 5477 5483 5488 5495 5505 5515 5525 5535 5546 5558 5569 5581 5593 5605 5618 5633 5645 5656 5666 5675 5680 5685 5688 5692
5531 5525 5519 5511 5504 5497 5490 5483 5477 5469 5463 5457 5452 5449 5446 5443 5441 5441 5442 5446 5450 5455 5463 5473 5484 5495 5507 5519 5533 5547 5559 5571 5586 5600 5615 5629 5642 5654 5665 5674 5678 5682 5685
5518 5512 5505 5496 5487 5479 5470 5460 5452 5443 5434 5427 5420 5415 5411 5408 5407 5407 5408 5412 5417 5421 5429 5439 5451 5465 5478 5492 5506 5522 5536 5549 5565 5581 5597 5612 5627 5640 5653 5664 5669 5674 5678
5504 5497 5489 5480 5468 5458 5447 5436 5425 5414 5404 5396 5389 5384 5379 5376 5374 5374 5376 5380 5384 5388 5396 5406 5418 5432 5447 5462 5478 5493 5511 5528 5545 5560 5577 5594 5609 5623 5637 5649 5657 5663 5669
5490 5482 5472 5462 5449 5437 5425 5411 5397 5385 5375 5367 5361 5356 5352 5349 5347 5347 5348 5351 5354 5359 5367 5376 5387 5400 5416 5432 5449 5466 5486 5505 5521 5537 5555 5573 5589 5604 5618 5631 5642 5650 5658
5477 5467 5455 5443 5429 5415 5399 5383 5370 5359 5351 5344 5338 5334 5330 5328 5326 5325 5326 5327 5329 5334 5341 5349 5359 5371 5386 5402 5420 5439 5458 5478 5497 5515 5532 5551 5569 5585 5600 5613 5626 5637 5646
5463 5451 5438 5425 5410 5395 5379 5363 5350 5339 5331 5325 5319 5314 5311 5308 5306 5305 5307 5307 5309 5313 5318 5325 5334 5345 5359 5375 5393 5413 5430 5450 5472 5491 5509 5529 5549 5567 5582 5596 5609 5621 5631
5448 5434 5420 5406 5391 5376 5361 5349 5337 5326 5317 5309 5302 5297 5293 5290 5288 5287 5287 5287 5289 5292 5296 5302 5310 5321 5334 5350 5368 5387 5405 5425 5446 5465 5485 5505 5526 5546 5563 5578 5591 5604 5616
5433 5419 5405 5389 5373 5359 5347 5337 5328 5317 5307 5298 5289 5282 5276 5273 5270 5269 5267 5267 5268 5270 5274 5279 5287 5299 5311 5325 5344 5365 5387 5405 5424 5440 5457 5477 5499 5520 5539 5556 5571 5586 5599
5418 5404 5389 5371 5356 5342 5330 5319 5309 5300 5290 5282 5274 5267 5261 5257 5255 5253 5250 5250 5250 5252 5255 5259 5265 5275 5286 5298 5315 5339 5362 5384 5400 5416 5431 5452 5473 5492 5513 5533 5548 5564 5579
5406 5390 5374 5356 5341 5328 5317 5308 5298 5289 5278 5270 5264 5258 5251 5247 5243 5241 5238 5237 5237 5237 5238 5241 5246 5251 5262 5274 5287 5305 5329 5350 5370 5395 5408 5426 5445 5465 5488 5509 5528 5543 5558
5393 5375 5357 5341 5328 5316 5305 5295 5284 5275 5268 5260 5254 5249 5243 5237 5234 5231 5228 5227 5225 5225 5225 5226 5230 5232 5240 5252 5264 5281 5297 5315 5337 5365 5388 5403 5420 5441 5463 5487 5506 5525 5542
5380 5362 5344 5328 5316 5305 5294 5282 5271 5262 5254 5250 5245 5240 5235 5229 5224 5220 5218 5215 5214 5213 5213 5214 5216 5218 5223 5232 5244 5259 5276 5296 5315 5335 5360 5383 5400 5418 5440 5463 5486 5507 5526
5368 5349 5333 5319 5307 5296 5284 5272 5261 5252 5246 5242 5238 5232 5227 5221 5214 5208 5206 5202 5201 5200 5200 5202 5204 5206 5211 5218 5228 5241 5255 5274 5296 5315 5335 5354 5376 5397 5419 5443 5467 5488 5508